GFSSE_prec_precacc12_336.txt.gz
Total_Precipitation_Accumulation
0.11 0.36 0.77 0.59 0.31 0.21 0.05 0.02 0.06 0.10 0.14 0.13 0.15 0.09 0.04 0.02 0.01 0.00 0.00 0.00 0.00 0.00 0.00 0.00 0.00 0.00 0.00 0.00 0.00 0.00 0.00 0.00 0.00 0.00 0.00 0.00 0.01 0.13 0.16 0.03 0.03 0.00 0.01
0.01 0.20 0.71 0.52 0.25 0.14 0.08 0.05 0.08 0.12 0.12 0.08 0.10 0.08 0.04 0.01 0.00 0.00 0.00 0.00 0.00 0.00 0.00 0.00 0.01 0.00 0.00 0.00 0.00 0.00 0.00 0.00 0.00 0.00 0.00 0.01 0.00 0.05 0.27 0.17 0.02 0.07 0.06
0.01 0.13 1.02 0.69 0.27 0.12 0.10 0.11 0.11 0.16 0.15 0.11 0.07 0.04 0.02 0.01 0.00 0.00 0.00 0.00 0.00 0.00 0.00 0.01 0.02 0.01 0.00 0.00 0.00 0.00 0.00 0.00 0.00 0.02 0.00 0.01 0.01 0.02 0.24 0.34 0.29 0.15 0.09
0.01 0.01 0.89 0.91 0.32 0.12 0.13 0.20 0.23 0.15 0.10 0.07 0.05 0.03 0.01 0.00 0.00 0.00 0.00 0.00 0.00 0.00 0.00 0.00 0.00 0.00 0.00 0.00 0.00 0.00 0.00 0.00 0.01 0.09 0.03 0.00 0.00 0.00 0.12 0.31 0.48 0.35 0.09
0.01 0.02 0.68 0.88 0.39 0.18 0.25 0.28 0.21 0.14 0.04 0.02 0.01 0.01 0.00 0.00 0.01 0.00 0.00 0.00 0.00 0.00 0.00 0.00 0.00 0.00 0.00 0.00 0.00 0.00 0.00 0.03 0.07 0.11 0.02 0.00 0.00 0.02 0.16 0.24 0.42 0.47 0.16
0.01 0.12 0.55 1.05 0.67 0.18 0.30 0.27 0.14 0.09 0.04 0.02 0.01 0.01 0.00 0.01 0.01 0.01 0.01 0.00 0.00 0.00 0.00 0.00 0.00 0.00 0.00 0.00 0.00 0.00 0.00 0.00 0.02 0.02 0.01 0.00 0.01 0.02 0.11 0.13 0.19 0.31 0.27
0.01 0.10 0.55 0.81 1.18 0.76 0.76 0.31 0.17 0.08 0.04 0.04 0.01 0.01 0.01 0.01 0.01 0.01 0.02 0.00 0.00 0.00 0.00 0.00 0.00 0.00 0.00 0.00 0.00 0.00 0.00 0.00 0.01 0.00 0.00 0.00 0.00 0.01 0.05 0.03 0.08 0.19 0.46
0.06 0.04 0.62 1.10 1.10 1.19 0.79 0.40 0.17 0.05 0.05 0.04 0.01 0.01 0.01 0.05 0.05 0.08 0.04 0.00 0.00 0.00 0.00 0.00 0.00 0.00 0.00 0.03 0.03 0.00 0.00 0.01 0.00 0.00 0.00 0.00 0.00 0.00 0.00 0.00 0.01 0.11 0.17
0.12 0.01 0.15 0.78 1.13 1.34 0.63 0.47 0.16 0.05 0.03 0.01 0.02 0.03 0.11 0.10 0.04 0.03 0.01 0.00 0.00 0.00 0.00 0.00 0.00 0.01 0.05 0.06 0.03 0.01 0.00 0.05 0.00 0.00 0.00 0.00 0.00 0.00 0.00 0.00 0.00 0.03 0.13
0.03 0.01 0.03 0.36 0.90 0.95 0.60 0.43 0.27 0.02 0.02 0.02 0.09 0.27 0.21 0.14 0.04 0.00 0.00 0.00 0.00 0.00 0.00 0.00 0.02 0.05 0.06 0.04 0.02 0.01 0.00 0.01 0.00 0.00 0.01 0.01 0.00 0.00 0.00 0.00 0.00 0.02 0.11
0.03 0.03 0.07 0.20 0.51 0.39 0.30 0.34 0.32 0.20 0.16 0.25 0.33 0.43 0.29 0.11 0.01 0.01 0.00 0.00 0.00 0.00 0.01 0.02 0.03 0.04 0.04 0.00 0.00 0.00 0.01 0.03 0.02 0.01 0.01 0.01 0.00 0.00 0.00 0.00 0.00 0.01 0.01
0.02 0.07 0.15 0.23 0.17 0.37 0.17 0.27 0.27 0.20 0.24 0.28 0.43 0.29 0.10 0.01 0.01 0.00 0.00 0.00 0.00 0.02 0.00 0.00 0.00 0.00 0.00 0.00 0.00 0.00 0.00 0.00 0.00 0.00 0.00 0.00 0.00 0.00 0.00 0.00 0.03 0.03 0.01
0.02 0.06 0.12 0.16 0.16 0.22 0.32 0.22 0.22 0.33 0.24 0.20 0.57 0.21 0.02 0.00 0.00 0.00 0.00 0.00 0.00 0.00 0.00 0.01 0.00 0.00 0.00 0.00 0.00 0.00 0.00 0.00 0.00 0.00 0.00 0.00 0.00 0.00 0.00 0.00 0.13 0.08 0.08
0.02 0.07 0.13 0.17 0.20 0.22 0.37 0.11 0.07 0.16 0.29 0.25 0.35 0.09 0.00 0.00 0.00 0.00 0.00 0.00 0.00 0.00 0.00 0.00 0.00 0.00 0.00 0.00 0.00 0.00 0.00 0.00 0.00 0.00 0.00 0.00 0.00 0.00 0.00 0.00 0.20 0.20 0.12
0.02 0.06 0.17 0.20 0.18 0.18 0.65 0.21 0.12 0.06 0.12 0.13 0.22 0.04 0.00 0.00 0.00 0.00 0.00 0.00 0.00 0.00 0.00 0.00 0.00 0.00 0.00 0.00 0.00 0.00 0.00 0.00 0.00 0.01 0.04 0.02 0.00 0.00 0.00 0.02 0.22 0.41 0.19
0.02 0.05 0.21 0.27 0.12 0.13 0.38 0.46 0.07 0.07 0.07 0.05 0.07 0.00 0.00 0.00 0.00 0.00 0.00 0.00 0.00 0.00 0.00 0.00 0.00 0.00 0.00 0.01 0.00 0.00 0.00 0.01 0.00 0.00 0.05 0.15 0.02 0.00 0.02 0.08 0.32 0.61 0.29
0.01 0.01 0.07 0.19 0.14 0.12 0.20 0.18 0.03 0.02 0.04 0.03 0.05 0.06 0.00 0.00 0.00 0.00 0.00 0.00 0.00 0.01 0.00 0.00 0.00 0.00 0.02 0.07 0.02 0.00 0.00 0.00 0.02 0.01 0.11 0.22 0.08 0.00 0.06 0.22 0.36 0.46 0.40
0.00 0.01 0.01 0.08 0.13 0.16 0.22 0.16 0.07 0.03 0.01 0.01 0.06 0.04 0.01 0.00 0.00 0.00 0.00 0.00 0.00 0.00 0.00 0.00 0.01 0.03 0.02 0.00 0.00 0.00 0.00 0.00 0.01 0.00 0.01 0.09 0.10 0.06 0.04 0.29 0.13 0.09 0.07
0.00 0.00 0.01 0.05 0.11 0.20 0.33 0.52 0.11 0.02 0.01 0.00 0.02 0.04 0.03 0.01 0.00 0.00 0.00 0.00 0.00 0.00 0.00 0.07 0.04 0.01 0.04 0.00 0.00 0.00 0.00 0.00 0.00 0.00 0.00 0.00 0.02 0.04 0.00 0.00 0.01 0.01 0.05
0.00 0.00 0.00 0.03 0.06 0.11 0.14 0.25 0.06 0.00 0.00 0.00 0.00 0.02 0.01 0.00 0.00 0.00 0.00 0.00 0.00 0.01 0.04 0.03 0.03 0.00 0.00 0.00 0.00 0.00 0.00 0.00 0.00 0.00 0.00 0.00 0.00 0.00 0.00 0.00 0.00 0.01 0.00
0.00 0.00 0.00 0.06 0.10 0.04 0.07 0.04 0.02 0.00 0.00 0.00 0.00 0.01 0.01 0.00 0.00 0.00 0.00 0.00 0.00 0.00 0.00 0.00 0.00 0.01 0.11 0.00 0.01 0.00 0.00 0.00 0.00 0.00 0.00 0.00 0.00 0.00 0.00 0.00 0.02 0.02 0.02
0.00 0.00 0.00 0.02 0.07 0.03 0.05 0.05 0.02 0.00 0.00 0.00 0.00 0.00 0.00 0.00 0.00 0.00 0.00 0.00 0.00 0.00 0.00 0.13 0.05 0.06 0.06 0.05 0.01 0.01 0.04 0.05 0.00 0.01 0.00 0.00 0.00 0.00 0.00 0.01 0.01 0.04 0.05
0.00 0.00 0.00 0.00 0.00 0.01 0.01 0.01 0.01 0.01 0.01 0.00 0.00 0.00 0.00 0.00 0.01 0.01 0.00 0.00 0.00 0.00 0.02 0.12 0.17 0.11 0.26 0.28 0.10 0.03 0.06 0.17 0.03 0.00 0.01 0.00 0.00 0.00 0.00 0.01 0.00 0.03 0.06
0.00 0.00 0.00 0.02 0.00 0.00 0.01 0.03 0.01 0.00 0.01 0.00 0.00 0.00 0.01 0.05 0.10 0.09 0.03 0.02 0.03 0.05 0.13 0.16 0.06 0.03 0.17 0.35 0.20 0.10 0.22 0.10 0.02 0.02 0.03 0.00 0.00 0.00 0.00 0.00 0.00 0.00 0.04
0.00 0.01 0.00 0.04 0.05 0.03 0.03 0.10 0.07 0.02 0.00 0.00 0.00 0.02 0.11 0.13 0.12 0.13 0.10 0.10 0.16 0.07 0.06 0.02 0.03 0.00 0.02 0.23 0.24 0.25 0.25 0.08 0.01 0.01 0.00 0.00 0.00 0.00 0.00 0.00 0.02 0.01 0.03
0.02 0.02 0.00 0.02 0.08 0.07 0.03 0.09 0.03 0.04 0.05 0.08 0.10 0.04 0.04 0.10 0.12 0.14 0.16 0.16 0.06 0.00 0.01 0.06 0.01 0.10 0.03 0.12 0.20 0.19 0.18 0.07 0.08 0.05 0.01 0.02 0.00 0.00 0.00 0.00 0.00 0.03 0.05

GFSSE_prec_precacc12_339.txt.gz
Total_Precipitation_Accumulation
0.21 0.22 0.81 0.75 0.30 0.18 0.11 0.02 0.05 0.08 0.11 0.10 0.11 0.04 0.03 0.02 0.01 0.00 0.00 0.00 0.00 0.00 0.00 0.00 0.00 0.00 0.00 0.00 0.00 0.00 0.00 0.00 0.00 0.00 0.00 0.00 0.01 0.12 0.16 0.02 0.03 0.00 0.01
0.03 0.08 0.72 0.57 0.21 0.13 0.10 0.09 0.04 0.07 0.09 0.07 0.07 0.05 0.03 0.01 0.00 0.00 0.00 0.00 0.00 0.00 0.00 0.00 0.01 0.00 0.00 0.00 0.00 0.00 0.00 0.00 0.00 0.00 0.00 0.01 0.00 0.04 0.24 0.12 0.01 0.05 0.04
0.03 0.08 0.88 0.71 0.21 0.10 0.09 0.12 0.08 0.11 0.13 0.09 0.05 0.03 0.02 0.01 0.00 0.00 0.00 0.00 0.00 0.00 0.00 0.01 0.02 0.01 0.00 0.00 0.00 0.00 0.00 0.00 0.00 0.00 0.02 0.08 0.01 0.02 0.22 0.23 0.32 0.15 0.07
0.03 0.02 0.76 1.03 0.27 0.10 0.14 0.24 0.22 0.11 0.08 0.06 0.05 0.03 0.01 0.00 0.00 0.00 0.00 0.00 0.00 0.00 0.00 0.00 0.00 0.00 0.00 0.00 0.00 0.00 0.00 0.00 0.01 0.01 0.01 0.03 0.00 0.00 0.12 0.30 0.49 0.40 0.09
0.02 0.02 0.51 0.95 0.33 0.12 0.32 0.36 0.25 0.16 0.05 0.02 0.02 0.01 0.00 0.00 0.00 0.00 0.00 0.00 0.00 0.00 0.00 0.00 0.00 0.00 0.00 0.00 0.00 0.00 0.00 0.03 0.07 0.06 0.02 0.00 0.00 0.02 0.12 0.19 0.37 0.42 0.25
0.03 0.04 0.37 1.09 0.72 0.11 0.38 0.39 0.17 0.10 0.04 0.04 0.02 0.01 0.01 0.01 0.00 0.00 0.00 0.00 0.00 0.00 0.00 0.00 0.00 0.00 0.00 0.00 0.00 0.00 0.00 0.00 0.02 0.01 0.01 0.00 0.01 0.01 0.06 0.12 0.18 0.26 0.36
0.03 0.03 0.33 0.89 1.26 0.70 0.88 0.45 0.22 0.10 0.04 0.06 0.02 0.02 0.02 0.01 0.01 0.01 0.02 0.00 0.00 0.00 0.00 0.00 0.00 0.00 0.00 0.00 0.00 0.00 0.00 0.00 0.02 0.00 0.00 0.00 0.00 0.00 0.04 0.03 0.08 0.17 0.45
0.05 0.03 0.37 1.08 1.35 1.57 1.32 0.53 0.22 0.08 0.06 0.08 0.03 0.01 0.00 0.05 0.05 0.08 0.04 0.00 0.00 0.00 0.00 0.00 0.00 0.00 0.00 0.02 0.03 0.00 0.00 0.01 0.00 0.00 0.00 0.00 0.00 0.00 0.00 0.00 0.01 0.11 0.17
0.08 0.01 0.13 0.78 2.06 3.64 1.45 0.57 0.24 0.12 0.08 0.05 0.02 0.02 0.12 0.12 0.05 0.04 0.01 0.00 0.00 0.00 0.00 0.00 0.00 0.01 0.05 0.06 0.01 0.00 0.02 0.07 0.06 0.00 0.02 0.01 0.00 0.00 0.00 0.00 0.00 0.02 0.13
0.04 0.03 0.03 0.35 1.48 2.29 1.17 0.58 0.34 0.10 0.08 0.04 0.09 0.27 0.26 0.16 0.04 0.00 0.00 0.00 0.00 0.00 0.00 0.00 0.02 0.05 0.06 0.04 0.02 0.00 0.00 0.01 0.00 0.00 0.02 0.02 0.00 0.00 0.00 0.00 0.00 0.02 0.11
0.06 0.09 0.11 0.17 0.57 0.59 0.53 0.36 0.34 0.15 0.16 0.25 0.33 0.44 0.33 0.12 0.01 0.01 0.00 0.00 0.00 0.00 0.01 0.02 0.03 0.05 0.04 0.00 0.00 0.00 0.01 0.03 0.02 0.01 0.01 0.02 0.00 0.00 0.00 0.00 0.00 0.02 0.03
0.05 0.13 0.22 0.23 0.24 0.40 0.23 0.31 0.28 0.17 0.19 0.31 0.49 0.29 0.13 0.02 0.01 0.00 0.00 0.00 0.00 0.02 0.00 0.00 0.00 0.00 0.00 0.00 0.00 0.00 0.00 0.00 0.00 0.00 0.00 0.00 0.00 0.00 0.00 0.00 0.04 0.11 0.13
0.03 0.13 0.21 0.16 0.15 0.20 0.30 0.20 0.21 0.28 0.24 0.26 0.69 0.23 0.02 0.00 0.00 0.00 0.00 0.00 0.00 0.00 0.00 0.01 0.00 0.00 0.00 0.00 0.00 0.00 0.00 0.00 0.00 0.00 0.00 0.00 0.00 0.00 0.00 0.00 0.22 0.29 0.27
0.02 0.11 0.16 0.19 0.18 0.22 0.37 0.11 0.07 0.15 0.31 0.35 0.47 0.12 0.01 0.00 0.00 0.00 0.00 0.00 0.00 0.00 0.00 0.00 0.00 0.00 0.00 0.00 0.00 0.00 0.01 0.01 0.01 0.00 0.00 0.00 0.00 0.00 0.00 0.00 0.35 0.48 0.25
0.02 0.12 0.27 0.24 0.17 0.16 0.70 0.27 0.13 0.06 0.12 0.20 0.33 0.05 0.00 0.00 0.00 0.00 0.00 0.00 0.00 0.00 0.00 0.00 0.00 0.00 0.00 0.00 0.00 0.00 0.00 0.00 0.00 0.00 0.01 0.01 0.00 0.00 0.00 0.00 0.17 0.61 0.20
0.02 0.08 0.31 0.34 0.13 0.13 0.40 0.53 0.07 0.07 0.07 0.05 0.10 0.01 0.00 0.00 0.00 0.00 0.00 0.00 0.00 0.00 0.00 0.00 0.00 0.00 0.00 0.01 0.00 0.00 0.00 0.00 0.00 0.00 0.02 0.07 0.01 0.00 0.00 0.00 0.17 0.54 0.22
0.01 0.02 0.17 0.31 0.16 0.12 0.22 0.22 0.06 0.02 0.04 0.04 0.05 0.06 0.00 0.00 0.00 0.00 0.00 0.00 0.00 0.00 0.00 0.00 0.00 0.00 0.00 0.03 0.01 0.00 0.00 0.00 0.00 0.00 0.06 0.03 0.01 0.00 0.01 0.01 0.29 0.37 0.30
0.00 0.01 0.05 0.18 0.15 0.16 0.23 0.18 0.07 0.03 0.01 0.01 0.06 0.04 0.01 0.00 0.00 0.00 0.00 0.00 0.00 0.00 0.00 0.00 0.00 0.00 0.01 0.00 0.00 0.00 0.00 0.00 0.00 0.00 0.00 0.00 0.00 0.02 0.02 0.03 0.12 0.08 0.06
0.00 0.01 0.02 0.15 0.12 0.22 0.34 0.52 0.12 0.03 0.01 0.00 0.02 0.04 0.03 0.01 0.00 0.00 0.00 0.00 0.00 0.00 0.00 0.03 0.03 0.00 0.04 0.00 0.00 0.00 0.00 0.00 0.00 0.00 0.00 0.00 0.00 0.03 0.00 0.00 0.00 0.00 0.03
0.00 0.00 0.01 0.15 0.10 0.12 0.15 0.26 0.11 0.06 0.00 0.00 0.00 0.02 0.01 0.00 0.00 0.00 0.00 0.00 0.00 0.00 0.01 0.02 0.03 0.00 0.01 0.00 0.00 0.00 0.00 0.00 0.00 0.00 0.00 0.00 0.00 0.00 0.00 0.00 0.00 0.01 0.00
0.00 0.00 0.01 0.18 0.13 0.06 0.08 0.05 0.07 0.02 0.00 0.00 0.00 0.01 0.01 0.00 0.00 0.00 0.00 0.00 0.00 0.00 0.00 0.00 0.00 0.04 0.15 0.00 0.00 0.00 0.00 0.00 0.00 0.02 0.00 0.00 0.00 0.00 0.00 0.00 0.00 0.00 0.01
0.00 0.00 0.01 0.09 0.17 0.12 0.12 0.09 0.04 0.01 0.00 0.00 0.00 0.00 0.00 0.00 0.00 0.00 0.00 0.00 0.00 0.00 0.00 0.16 0.09 0.12 0.07 0.06 0.02 0.00 0.00 0.05 0.07 0.09 0.00 0.00 0.00 0.00 0.00 0.00 0.00 0.00 0.07
0.00 0.00 0.00 0.01 0.03 0.07 0.10 0.12 0.07 0.04 0.01 0.00 0.00 0.00 0.00 0.00 0.00 0.00 0.00 0.00 0.00 0.00 0.05 0.20 0.28 0.25 0.31 0.36 0.15 0.04 0.02 0.17 0.03 0.00 0.00 0.00 0.00 0.00 0.00 0.00 0.01 0.02 0.07
0.00 0.00 0.00 0.01 0.01 0.05 0.09 0.12 0.08 0.08 0.05 0.01 0.00 0.00 0.00 0.00 0.00 0.00 0.01 0.02 0.03 0.07 0.20 0.28 0.16 0.16 0.16 0.29 0.17 0.13 0.27 0.12 0.06 0.01 0.00 0.00 0.00 0.00 0.00 0.00 0.01 0.04 0.16
0.00 0.00 0.00 0.02 0.04 0.04 0.07 0.15 0.13 0.10 0.08 0.02 0.00 0.01 0.00 0.01 0.02 0.08 0.09 0.10 0.16 0.18 0.19 0.11 0.07 0.01 0.03 0.06 0.19 0.27 0.28 0.13 0.07 0.04 0.01 0.00 0.01 0.00 0.00 0.00 0.02 0.06 0.10
0.01 0.00 0.00 0.00 0.05 0.07 0.03 0.07 0.09 0.12 0.09 0.02 0.01 0.02 0.01 0.04 0.09 0.13 0.15 0.16 0.07 0.07 0.06 0.09 0.01 0.03 0.03 0.08 0.24 0.23 0.16 0.09 0.08 0.04 0.01 0.00 0.01 0.00 0.00 0.00 0.01 0.05 0.14

GFSSE_prec_precacc12_342.txt.gz
Total_Precipitation_Accumulation
0.21 0.14 0.88 0.76 0.18 0.10 0.14 0.05 0.05 0.06 0.09 0.07 0.06 0.04 0.02 0.02 0.01 0.00 0.00 0.00 0.00 0.00 0.00 0.00 0.00 0.00 0.00 0.00 0.00 0.00 0.00 0.00 0.00 0.00 0.00 0.00 0.01 0.08 0.13 0.00 0.00 0.01 0.00
0.04 0.02 0.76 0.61 0.13 0.05 0.12 0.13 0.04 0.03 0.06 0.04 0.05 0.04 0.02 0.01 0.00 0.00 0.00 0.00 0.00 0.00 0.00 0.00 0.01 0.00 0.00 0.00 0.00 0.00 0.00 0.00 0.00 0.00 0.00 0.01 0.00 0.03 0.19 0.03 0.01 0.02 0.00
0.04 0.02 0.76 0.68 0.16 0.06 0.07 0.14 0.09 0.03 0.05 0.06 0.04 0.02 0.01 0.00 0.00 0.00 0.00 0.00 0.00 0.00 0.00 0.01 0.02 0.01 0.00 0.00 0.00 0.00 0.00 0.00 0.00 0.00 0.06 0.21 0.02 0.02 0.12 0.14 0.26 0.09 0.01
0.04 0.01 0.58 0.99 0.20 0.07 0.09 0.21 0.20 0.08 0.04 0.05 0.04 0.02 0.01 0.00 0.00 0.00 0.00 0.00 0.00 0.00 0.00 0.00 0.00 0.00 0.00 0.00 0.00 0.00 0.00 0.00 0.01 0.01 0.09 0.04 0.01 0.00 0.08 0.24 0.33 0.28 0.06
0.03 0.02 0.36 0.88 0.27 0.08 0.28 0.36 0.25 0.16 0.06 0.03 0.01 0.01 0.00 0.00 0.00 0.00 0.00 0.00 0.00 0.00 0.00 0.00 0.00 0.00 0.00 0.00 0.00 0.00 0.00 0.03 0.06 0.01 0.01 0.00 0.00 0.00 0.04 0.09 0.18 0.25 0.19
0.03 0.00 0.26 1.03 0.58 0.14 0.42 0.40 0.19 0.10 0.05 0.04 0.02 0.01 0.01 0.01 0.00 0.00 0.00 0.00 0.00 0.00 0.00 0.00 0.00 0.00 0.00 0.00 0.00 0.00 0.00 0.00 0.02 0.02 0.03 0.00 0.01 0.00 0.02 0.04 0.11 0.16 0.31
0.03 0.01 0.15 0.88 1.15 0.89 1.14 0.49 0.24 0.11 0.06 0.10 0.06 0.03 0.01 0.00 0.00 0.00 0.00 0.00 0.00 0.00 0.00 0.00 0.00 0.00 0.00 0.00 0.00 0.00 0.00 0.00 0.02 0.01 0.02 0.00 0.00 0.00 0.01 0.01 0.05 0.11 0.38
0.03 0.02 0.12 0.88 1.25 1.71 1.70 0.65 0.24 0.11 0.08 0.11 0.08 0.04 0.01 0.03 0.03 0.07 0.03 0.00 0.00 0.00 0.00 0.00 0.00 0.00 0.00 0.01 0.01 0.00 0.00 0.02 0.02 0.01 0.04 0.00 0.00 0.00 0.00 0.00 0.01 0.09 0.12
0.04 0.01 0.09 0.61 1.92 3.74 1.93 0.78 0.34 0.19 0.09 0.11 0.05 0.02 0.11 0.11 0.05 0.04 0.01 0.00 0.00 0.00 0.00 0.00 0.00 0.00 0.01 0.02 0.00 0.00 0.02 0.07 0.15 0.11 0.41 0.03 0.00 0.00 0.00 0.00 0.00 0.01 0.08
0.06 0.04 0.04 0.43 2.25 3.12 1.61 0.82 0.46 0.16 0.12 0.06 0.05 0.12 0.24 0.11 0.03 0.01 0.00 0.00 0.00 0.00 0.00 0.00 0.02 0.05 0.02 0.01 0.01 0.00 0.00 0.01 0.00 0.02 0.08 0.03 0.00 0.00 0.00 0.00 0.00 0.00 0.06
0.15 0.13 0.11 0.23 0.66 0.84 0.73 0.38 0.33 0.16 0.08 0.19 0.24 0.30 0.29 0.12 0.01 0.00 0.00 0.00 0.00 0.00 0.01 0.02 0.03 0.05 0.04 0.00 0.00 0.00 0.00 0.00 0.00 0.00 0.01 0.02 0.00 0.00 0.00 0.00 0.00 0.07 0.11
0.12 0.18 0.25 0.21 0.22 0.39 0.23 0.27 0.25 0.16 0.15 0.29 0.44 0.27 0.15 0.04 0.01 0.00 0.00 0.00 0.00 0.02 0.00 0.00 0.00 0.00 0.00 0.00 0.00 0.00 0.00 0.01 0.01 0.01 0.00 0.00 0.00 0.00 0.00 0.00 0.07 0.27 0.25
0.06 0.19 0.25 0.17 0.14 0.16 0.12 0.15 0.21 0.24 0.27 0.29 0.63 0.22 0.04 0.00 0.00 0.00 0.00 0.00 0.00 0.00 0.00 0.00 0.00 0.00 0.00 0.00 0.00 0.00 0.00 0.02 0.02 0.03 0.03 0.01 0.00 0.01 0.00 0.00 0.31 0.43 0.37
0.03 0.14 0.19 0.20 0.14 0.15 0.33 0.09 0.10 0.17 0.28 0.28 0.42 0.14 0.01 0.00 0.00 0.00 0.00 0.00 0.00 0.00 0.00 0.00 0.00 0.00 0.00 0.01 0.01 0.02 0.01 0.02 0.01 0.01 0.01 0.00 0.00 0.00 0.00 0.00 0.37 0.50 0.34
0.01 0.13 0.30 0.24 0.14 0.11 0.66 0.26 0.11 0.04 0.06 0.14 0.29 0.05 0.01 0.00 0.00 0.00 0.00 0.00 0.00 0.00 0.00 0.00 0.00 0.00 0.00 0.02 0.00 0.00 0.00 0.00 0.00 0.00 0.00 0.00 0.01 0.00 0.02 0.00 0.12 0.61 0.17
0.01 0.08 0.31 0.32 0.10 0.08 0.31 0.49 0.05 0.04 0.04 0.04 0.10 0.01 0.01 0.00 0.00 0.00 0.00 0.00 0.00 0.00 0.00 0.00 0.00 0.00 0.00 0.00 0.00 0.00 0.00 0.00 0.00 0.00 0.00 0.01 0.01 0.00 0.03 0.03 0.17 0.52 0.19
0.00 0.02 0.17 0.29 0.11 0.05 0.10 0.16 0.04 0.01 0.04 0.03 0.02 0.02 0.00 0.00 0.00 0.00 0.00 0.00 0.00 0.00 0.00 0.00 0.00 0.00 0.00 0.00 0.00 0.00 0.00 0.02 0.00 0.00 0.07 0.00 0.00 0.02 0.14 0.21 0.23 0.29 0.23
0.00 0.01 0.05 0.19 0.13 0.07 0.15 0.15 0.06 0.00 0.01 0.01 0.02 0.02 0.00 0.00 0.00 0.00 0.00 0.00 0.00 0.00 0.00 0.00 0.00 0.00 0.00 0.00 0.00 0.00 0.01 0.18 0.00 0.15 0.35 0.00 0.00 0.00 0.14 0.11 0.06 0.08 0.08
0.00 0.01 0.02 0.16 0.09 0.12 0.30 0.51 0.12 0.02 0.01 0.00 0.01 0.02 0.01 0.00 0.00 0.00 0.00 0.00 0.00 0.00 0.00 0.00 0.00 0.00 0.00 0.00 0.00 0.00 0.04 0.21 0.00 0.01 0.01 0.01 0.00 0.00 0.01 0.00 0.04 0.15 0.22
0.00 0.01 0.02 0.19 0.12 0.10 0.16 0.29 0.13 0.10 0.01 0.00 0.00 0.00 0.00 0.00 0.00 0.00 0.00 0.00 0.00 0.00 0.00 0.00 0.01 0.01 0.01 0.00 0.00 0.00 0.07 0.09 0.03 0.06 0.00 0.00 0.00 0.01 0.00 0.00 0.03 0.14 0.18
0.00 0.00 0.02 0.20 0.16 0.07 0.09 0.05 0.10 0.07 0.01 0.00 0.00 0.00 0.00 0.00 0.00 0.00 0.00 0.00 0.00 0.00 0.00 0.00 0.02 0.07 0.19 0.02 0.00 0.00 0.02 0.04 0.07 0.33 0.03 0.00 0.00 0.00 0.00 0.01 0.10 0.20 0.51
0.00 0.00 0.01 0.12 0.19 0.15 0.14 0.10 0.13 0.11 0.00 0.00 0.00 0.00 0.00 0.00 0.00 0.00 0.00 0.00 0.00 0.00 0.00 0.17 0.17 0.15 0.18 0.10 0.08 0.03 0.01 0.10 0.15 0.19 0.04 0.04 0.03 0.00 0.00 0.06 0.05 0.23 0.36
0.00 0.00 0.00 0.02 0.05 0.18 0.17 0.21 0.15 0.09 0.02 0.00 0.01 0.00 0.00 0.00 0.00 0.00 0.00 0.00 0.00 0.00 0.06 0.28 0.30 0.34 0.31 0.41 0.20 0.19 0.13 0.25 0.04 0.01 0.02 0.04 0.01 0.00 0.00 0.04 0.05 0.22 0.18
0.00 0.00 0.00 0.01 0.02 0.15 0.22 0.21 0.14 0.13 0.06 0.01 0.00 0.00 0.00 0.00 0.00 0.00 0.00 0.00 0.01 0.04 0.18 0.30 0.22 0.28 0.22 0.30 0.20 0.23 0.36 0.28 0.11 0.02 0.01 0.05 0.00 0.01 0.00 0.01 0.01 0.05 0.18
0.00 0.00 0.00 0.01 0.02 0.12 0.21 0.30 0.24 0.22 0.17 0.06 0.01 0.02 0.00 0.00 0.00 0.00 0.00 0.02 0.03 0.19 0.27 0.23 0.16 0.05 0.06 0.09 0.25 0.33 0.36 0.20 0.12 0.05 0.04 0.03 0.02 0.01 0.00 0.00 0.01 0.07 0.11
0.00 0.00 0.00 0.00 0.02 0.07 0.11 0.20 0.26 0.25 0.20 0.06 0.01 0.01 0.00 0.00 0.00 0.03 0.06 0.08 0.08 0.17 0.22 0.18 0.05 0.06 0.07 0.12 0.26 0.26 0.20 0.13 0.08 0.03 0.02 0.02 0.03 0.05 0.00 0.00 0.01 0.05 0.16

GFSSE_prec_precacc12_345.txt.gz
Total_Precipitation_Accumulation
0.21 0.13 0.86 0.59 0.08 0.10 0.13 0.06 0.04 0.04 0.05 0.05 0.02 0.01 0.01 0.01 0.00 0.00 0.00 0.00 0.00 0.00 0.00 0.00 0.00 0.00 0.00 0.00 0.00 0.00 0.00 0.00 0.00 0.00 0.00 0.00 0.00 0.04 0.03 0.00 0.01 0.01 0.00
0.04 0.06 0.73 0.40 0.06 0.07 0.12 0.13 0.05 0.02 0.03 0.02 0.02 0.01 0.01 0.00 0.00 0.00 0.00 0.00 0.00 0.00 0.00 0.00 0.00 0.00 0.00 0.00 0.00 0.00 0.00 0.00 0.00 0.00 0.00 0.01 0.00 0.00 0.10 0.01 0.01 0.02 0.00
0.04 0.04 0.83 0.36 0.09 0.07 0.08 0.14 0.10 0.03 0.01 0.02 0.01 0.01 0.00 0.00 0.00 0.00 0.00 0.00 0.00 0.00 0.00 0.00 0.00 0.00 0.00 0.00 0.00 0.00 0.00 0.00 0.00 0.00 0.06 0.21 0.02 0.00 0.04 0.05 0.17 0.07 0.00
0.04 0.01 0.60 0.60 0.06 0.04 0.09 0.19 0.16 0.07 0.00 0.01 0.02 0.02 0.00 0.00 0.00 0.00 0.00 0.00 0.00 0.00 0.00 0.00 0.00 0.00 0.00 0.00 0.00 0.00 0.00 0.00 0.01 0.03 0.18 0.05 0.01 0.00 0.03 0.09 0.15 0.16 0.03
0.03 0.02 0.36 0.61 0.13 0.04 0.22 0.31 0.19 0.11 0.04 0.01 0.01 0.00 0.00 0.00 0.00 0.00 0.00 0.00 0.00 0.00 0.00 0.00 0.00 0.00 0.00 0.00 0.00 0.00 0.00 0.03 0.05 0.02 0.10 0.01 0.01 0.00 0.01 0.00 0.03 0.12 0.16
0.04 0.00 0.24 0.81 0.39 0.11 0.31 0.32 0.14 0.07 0.05 0.04 0.01 0.01 0.01 0.00 0.00 0.00 0.00 0.00 0.00 0.00 0.00 0.00 0.00 0.00 0.00 0.00 0.00 0.00 0.00 0.00 0.02 0.03 0.05 0.02 0.02 0.00 0.01 0.01 0.01 0.05 0.24
0.03 0.01 0.13 0.70 0.91 0.94 1.07 0.43 0.20 0.10 0.06 0.10 0.06 0.03 0.01 0.00 0.00 0.00 0.00 0.00 0.00 0.00 0.00 0.00 0.00 0.00 0.00 0.00 0.00 0.00 0.00 0.00 0.02 0.02 0.03 0.01 0.01 0.00 0.00 0.00 0.00 0.02 0.20
0.03 0.02 0.05 0.56 0.94 1.58 1.77 0.60 0.22 0.11 0.09 0.11 0.09 0.04 0.00 0.00 0.00 0.02 0.01 0.00 0.00 0.00 0.00 0.00 0.00 0.00 0.00 0.00 0.00 0.00 0.00 0.02 0.02 0.02 0.06 0.02 0.01 0.00 0.00 0.00 0.00 0.01 0.04
0.03 0.01 0.08 0.39 1.50 3.47 2.07 0.89 0.37 0.20 0.09 0.12 0.06 0.01 0.08 0.09 0.04 0.03 0.00 0.00 0.00 0.00 0.00 0.00 0.00 0.00 0.00 0.00 0.00 0.00 0.02 0.07 0.17 0.14 0.43 0.04 0.00 0.00 0.00 0.00 0.00 0.00 0.03
0.06 0.04 0.03 0.27 1.96 2.74 1.47 0.83 0.44 0.16 0.11 0.06 0.01 0.05 0.18 0.06 0.01 0.00 0.00 0.00 0.00 0.00 0.00 0.00 0.01 0.00 0.01 0.00 0.01 0.00 0.00 0.01 0.06 0.07 0.12 0.03 0.00 0.00 0.00 0.00 0.00 0.00 0.01
0.15 0.13 0.12 0.15 0.61 0.80 0.73 0.36 0.26 0.10 0.02 0.06 0.04 0.15 0.21 0.09 0.01 0.00 0.00 0.00 0.00 0.00 0.00 0.00 0.01 0.02 0.01 0.00 0.00 0.00 0.00 0.00 0.01 0.03 0.07 0.02 0.03 0.01 0.00 0.00 0.03 0.11 0.16
0.12 0.18 0.24 0.09 0.16 0.36 0.21 0.21 0.17 0.09 0.05 0.15 0.22 0.16 0.15 0.06 0.00 0.00 0.00 0.00 0.00 0.02 0.00 0.00 0.00 0.00 0.00 0.00 0.00 0.00 0.00 0.01 0.02 0.03 0.01 0.00 0.11 0.03 0.04 0.09 0.19 0.39 0.35
0.06 0.19 0.24 0.14 0.07 0.09 0.03 0.10 0.10 0.11 0.14 0.21 0.40 0.19 0.10 0.01 0.00 0.00 0.00 0.00 0.00 0.00 0.00 0.00 0.00 0.00 0.00 0.00 0.00 0.03 0.02 0.03 0.05 0.16 0.05 0.02 0.02 0.07 0.13 0.15 0.39 0.46 0.36
0.02 0.13 0.18 0.17 0.09 0.03 0.22 0.05 0.06 0.10 0.15 0.21 0.29 0.16 0.03 0.01 0.00 0.00 0.00 0.00 0.00 0.00 0.00 0.00 0.00 0.00 0.01 0.01 0.01 0.05 0.03 0.02 0.02 0.04 0.02 0.01 0.02 0.33 0.16 0.12 0.42 0.52 0.33
0.01 0.12 0.27 0.21 0.11 0.04 0.40 0.17 0.05 0.02 0.04 0.09 0.16 0.05 0.02 0.00 0.00 0.00 0.00 0.00 0.00 0.00 0.00 0.00 0.00 0.00 0.00 0.02 0.00 0.00 0.01 0.01 0.01 0.04 0.00 0.05 0.04 0.06 0.09 0.06 0.17 0.62 0.18
0.00 0.07 0.27 0.24 0.06 0.03 0.16 0.34 0.03 0.01 0.00 0.01 0.05 0.02 0.01 0.00 0.00 0.00 0.00 0.00 0.00 0.00 0.00 0.00 0.00 0.00 0.00 0.00 0.00 0.01 0.02 0.05 0.10 0.09 0.05 0.03 0.01 0.04 0.08 0.05 0.22 0.43 0.16
0.00 0.02 0.16 0.22 0.05 0.01 0.04 0.10 0.03 0.00 0.00 0.01 0.00 0.00 0.00 0.00 0.00 0.00 0.00 0.00 0.00 0.00 0.00 0.00 0.00 0.00 0.00 0.00 0.00 0.04 0.14 0.26 0.20 0.13 0.32 0.02 0.02 0.04 0.18 0.30 0.07 0.10 0.13
0.00 0.01 0.04 0.16 0.07 0.02 0.03 0.05 0.05 0.00 0.00 0.00 0.00 0.00 0.00 0.00 0.00 0.00 0.00 0.00 0.00 0.00 0.00 0.00 0.00 0.00 0.00 0.00 0.01 0.11 0.18 0.37 0.33 0.26 0.54 0.01 0.00 0.01 0.32 0.21 0.08 0.06 0.09
0.00 0.01 0.02 0.15 0.07 0.06 0.11 0.26 0.10 0.02 0.00 0.00 0.00 0.00 0.00 0.00 0.00 0.00 0.00 0.00 0.00 0.00 0.00 0.00 0.00 0.00 0.01 0.02 0.03 0.23 0.27 1.07 0.24 0.05 0.02 0.01 0.00 0.01 0.11 0.10 0.13 0.19 0.27
0.00 0.01 0.03 0.20 0.11 0.06 0.14 0.30 0.13 0.10 0.01 0.00 0.00 0.00 0.00 0.00 0.00 0.00 0.00 0.00 0.00 0.00 0.00 0.00 0.01 0.01 0.01 0.00 0.00 0.08 0.22 0.50 0.10 0.10 0.05 0.04 0.02 0.05 0.05 0.08 0.26 0.98 0.28
0.00 0.00 0.03 0.21 0.16 0.07 0.11 0.08 0.11 0.07 0.01 0.00 0.00 0.00 0.00 0.00 0.00 0.00 0.00 0.00 0.00 0.00 0.00 0.00 0.02 0.07 0.17 0.02 0.00 0.01 0.12 0.16 0.16 0.34 0.07 0.03 0.03 0.02 0.03 0.07 0.23 0.38 0.56
0.00 0.00 0.02 0.13 0.20 0.16 0.14 0.13 0.15 0.14 0.01 0.00 0.00 0.00 0.00 0.00 0.00 0.00 0.00 0.00 0.00 0.00 0.00 0.16 0.17 0.15 0.23 0.11 0.08 0.04 0.09 0.11 0.20 0.25 0.08 0.07 0.06 0.00 0.00 0.08 0.09 0.31 0.45
0.00 0.00 0.00 0.02 0.05 0.18 0.19 0.25 0.19 0.12 0.03 0.00 0.01 0.00 0.00 0.00 0.00 0.00 0.00 0.00 0.00 0.00 0.05 0.26 0.27 0.36 0.32 0.31 0.17 0.22 0.16 0.26 0.08 0.07 0.07 0.16 0.09 0.00 0.00 0.04 0.05 0.22 0.20
0.00 0.00 0.00 0.01 0.02 0.15 0.23 0.25 0.18 0.14 0.07 0.01 0.00 0.00 0.00 0.00 0.00 0.00 0.00 0.00 0.00 0.03 0.15 0.27 0.25 0.32 0.22 0.14 0.12 0.23 0.37 0.28 0.12 0.03 0.02 0.11 0.02 0.01 0.00 0.01 0.01 0.05 0.18
0.00 0.00 0.00 0.00 0.02 0.12 0.21 0.31 0.30 0.25 0.19 0.07 0.01 0.02 0.00 0.00 0.00 0.00 0.00 0.00 0.00 0.19 0.28 0.23 0.23 0.08 0.07 0.06 0.23 0.33 0.32 0.20 0.13 0.07 0.06 0.04 0.03 0.01 0.00 0.00 0.01 0.07 0.11
0.00 0.00 0.00 0.00 0.01 0.07 0.12 0.22 0.31 0.30 0.23 0.06 0.01 0.01 0.00 0.00 0.00 0.00 0.00 0.00 0.06 0.18 0.27 0.18 0.07 0.05 0.07 0.11 0.23 0.24 0.19 0.12 0.07 0.03 0.03 0.03 0.03 0.05 0.00 0.00 0.01 0.05 0.16